Regional Weather Roundup
Issued by NWS Little Rock, AR

Home | Current Version | Previous Version | Text Only | Print | Product List | Glossary On
Versions: 1 2 3 4 5 6 7 8 9 10 11 12 13 14 15 16 17 18 19 20 21 22 23 24 25 26 27 28 29 30 31 32 33 34 35 36 37 38 39 40 41 42 43 44 45 46 47 48 49 50
197
ASUS44 KLZK 081005
RWRLZK

WEATHER ROUNDUP FOR ARKANSAS
NATIONAL WEATHER SERVICE LITTLE ROCK AR
400 AM CST MON FEB 08 2016

NOTE: "FAIR" INDICATES FEW OR NO CLOUDS BELOW 12,000 FEET WITH NO
SIGNIFICANT WEATHER AND/OR OBSTRUCTIONS TO VISIBILITY.

ARZ001-003-010-029-081100-
NORTHWEST ARKANSAS

CITY           SKY/WX    TMP DP  RH WIND       PRES   REMARKS
FAYETTEVILLE   CLEAR     35  21  56 NW13G20   30.06S WCI  26
FORT SMITH     CLEAR     39  20  46 W13       30.11S
HARRISON       CLEAR     36  19  50 NW21G29   29.95F
BENTONVILLE    CLEAR     36  18  48 NW17G28   30.05S
ROGERS         CLEAR     35  20  54 W15G24    30.04S WCI  25
SILOAM SPGS    CLEAR     36  16  44 NW17G25   30.08S
HIGHFILL       FLURRIES  36  20  52 NW15G28   30.04F
$$

ARZ004-005-016-081100-
NORTH CENTRAL ARKANSAS

CITY           SKY/WX    TMP DP  RH WIND       PRES   REMARKS
BATESVILLE     PTCLDY    41  19  42 W7        29.96F
FLIPPIN        CLEAR     39  18  41 W15       29.93F
MTN HOME       CLEAR     39  22  50 VRB7      29.93F
$$

ARZ040-041-081100-
WEST CENTRAL ARKANSAS

CITY           SKY/WX    TMP DP  RH WIND       PRES   REMARKS
MENA           CLEAR     43  21  42 W14G23    30.10R
MOUNT IDA      CLEAR     44  20  38 NW10G20   30.04F
$$

ARZ009-017-025-026-028-081100-
NORTHEAST ARKANSAS

CITY           SKY/WX    TMP DP  RH WIND       PRES   REMARKS
CORNING        FAIR      39  25  56 W13       29.90S
JONESBORO      PTCLDY    40  22  48 W14G21    29.92S
NEWPORT        PTCLDY    42  21  43 W14       29.96S
WALNUT RIDGE   PTCLDY    39  19  45 W12       29.92F
BLYTHEVILLE    CLEAR     42  24  49 W18       29.88F
$$

ARZ022-023-033-042-044-081100-
CENTRAL ARKANSAS

CITY           SKY/WX    TMP DP  RH WIND       PRES   REMARKS
LITTLE ROCK    CLEAR     46  18  32 W10       30.01F
N LITTLE ROCK    N/A     43  21  41 W8G18     30.01F
JACKSONVILLE   CLEAR     43  20  40 W12       29.98F
SEARCY         CLEAR     41  21  44 VRB5      30.00S
HOT SPRINGS    PTCLDY    45  22  40 NW10G23   30.04F
RUSSELLVILLE   CLEAR     41  21  44 W12       30.02F
CLINTON        FAIR      41  19  42 CALM      29.99F
$$

ARZ036-081100-
EAST ARKANSAS

CITY           SKY/WX    TMP DP  RH WIND       PRES   REMARKS
WEST MEMPHIS   CLEAR     42  27  55 W7        29.94R
$$

ARZ050-053-066-070-073-081100-
SOUTHWEST ARKANSAS

CITY           SKY/WX    TMP DP  RH WIND       PRES   REMARKS
ARKADELPHIA    FAIR      46  24  42 W8        30.07F
CAMDEN         PTCLDY    46  23  39 NW8G16    30.06S
TEXARKANA      PTCLDY    46  23  40 NW13G22   30.12S
EL DORADO      PTCLDY    47  26  44 W12G22    30.07S
DE QUEEN       CLEAR     45  21  38 NW13      30.13S
$$

ARZ056-057-069-081100-
SOUTHEAST ARKANSAS

CITY           SKY/WX    TMP DP  RH WIND       PRES   REMARKS
PINE BLUFF     CLEAR     47  20  34 NW18      30.02F
STUTTGART      CLEAR     45  23  42 W16       30.00S
MONTICELLO     MOCLDY    47  27  45 NW7       30.00F

$$






USA.gov is the U.S. government's official web portal to all federal, state and local government web resources and services.